Powrót do katalogu

THORAD AGENA D DEB

AktywnyPO
NORAD 42508·DEBRIS·🇺🇸 United States

Wystrzelony Apr 8, 1970 z Vandenberg Space Force Base

Loading…

Następne Przeloty (najbliższe 24 godziny)

TLE

ŚwieżeSource: Space-Track

Epoka: Sep 13, 2026, 10:15 UTC

1 42508U 70025RN  26256.42750731  .00000319  00000-0  26662-3 0  9991
2 42508  99.8024 134.2077 0120809 103.1960 258.2708 13.92937394188523

Śledź THORAD AGENA D DEB w czasie rzeczywistym z AllMySat

Download on the App Store